Location: ??????
(41.3164°N, 22.6615°E)
Time: 16:14:42
(UTC+00:00)

CUBESAT XI-V - Pass Details

Date: 02 July 2022
Orbit: 668 x 690 km, 98.1° (Epoch: 17 August)

Event Time Altitude Azimuth Distance (km) Brightness Sun altitude
Exits shadow 00:16:48 48° 168° (SSE) 876 ? -21.3°
Maximum altitude 00:18:05 88° 250° (WSW) 679 ? -21.2°
Drops below altitude 10° 00:22:42 10° 347° (NNW) 2,108 ? -20.8°
Sets 00:24:56 0° 347° (NNW) 3,024 ? -20.6°
